Location: Sternwarte_Laufen
(47.9344°N, 12.9346°E)
Time: 18:54:35
(UTC+02:00)

ISS - Visible Passes

Search period start: 26 March 2017 00:00
Search period end: 05 April 2017 01:00
Orbit: 399 x 409 km, 51.6° (Epoch: 27 March)

Date Brightness Start Highest point End Pass type
(mag) Time Alt. Az. Time Alt. Az. Time Alt. Az.
27 Mar -1.6 20:17:26 10° SE 20:18:06 10° SE 20:18:27 10° SE visible
27 Mar -1.1 21:50:45 10° SW 21:51:10 13° SW 21:51:10 13° SW visible
28 Mar -3.2 20:58:40 10° SSW 21:01:40 34° SE 21:01:52 34° SE visible
29 Mar -2.4 20:06:53 10° SSW 20:09:25 21° SE 20:11:59 10° E visible
29 Mar -3.3 21:42:20 10° WSW 21:45:00 56° W 21:45:00 56° W visible
30 Mar -3.9 20:49:58 10° SW 20:53:11 67° SSE 20:55:12 21° ENE visible
30 Mar -1.2 22:26:37 10° W 22:27:52 20° WNW 22:27:52 20° WNW visible
31 Mar -3.2 21:34:03 10° W 21:37:17 54° NNW 21:37:53 45° NNE visible
01 Apr -3.6 20:41:31 10° WSW 20:44:47 72° NNW 20:47:46 12° ENE visible
01 Apr -1.8 22:18:24 10° WNW 22:20:25 29° NW 22:20:25 29° NW visible
02 Apr -2.8 21:25:48 10° W 21:28:57 43° N 21:30:11 29° NE visible
02 Apr -0.5 23:02:33 10° WNW 23:02:50 12° WNW 23:02:50 12° WNW visible
03 Apr -3.1 20:33:11 10° W 20:36:23 50° NNW 20:39:36 10° ENE visible
03 Apr -2.4 22:10:03 10° WNW 22:12:30 37° NNW 22:12:30 37° NNW visible
04 Apr -2.8 21:17:29 10° WNW 21:20:37 41° N 21:22:07 24° ENE visible
04 Apr -0.8 22:54:03 10° WNW 22:54:46 15° WNW 22:54:46 15° WNW visible
